GW3620 Weather Reports


time (UTC)temp
F
wind
direction
speed
knots
gust
knots
rain 1hr
in
rain 24hr
in
rain mn
in
humidity
%
barometer
mb
20260506024033 67 89 4.3 10.4 0.00 0.17 0.00 35 1011.4
20260506023031 67 293 5.2 11.3 0.00 0.17 0.00 34 1011.4
20260506022033 67 300 2.6 8.7 0.00 0.17 0.00 33 1011.4
20260506021033 68 293 4.3 7.8 0.00 0.17 0.00 32 1010.9
20260506020050 68 305 7.0 11.3 0.00 0.17 0.00 31 1010.7
20260506015033 69 290 6.1 11.3 0.00 0.17 0.00 30 1010.7
20260506014033 69 279 7.0 13.0 0.00 0.17 0.00 29 1010.7
20260506013033 69 289 7.8 15.6 0.00 0.17 0.00 29 1010.6
20260506012031 70 280 6.1 11.3 0.00 0.17 0.00 29 1010.6
20260506011033 70 282 9.6 18.2 0.00 0.17 0.00 30 1010.5
20260506010033 71 296 9.6 13.9 0.00 0.17 0.00 30 1010.1
20260506005033 71 307 7.8 16.5 0.00 0.17 0.00 29 1010.1
20260506004050 72 304 7.8 15.6 0.00 0.17 0.00 28 1009.9
20260506003050 72 296 10.4 16.5 0.00 0.17 0.00 28 1009.8
20260506002033 72 270 11.3 16.5 0.00 0.17 0.00 27 1009.8
20260506001031 73 305 9.6 16.5 0.00 0.17 0.00 28 1009.7
20260506000033 73 283 8.7 19.1 0.00 0.17 0.00 28 1009.3
20260505235050 74 292 8.7 23.5 0.00 0.17 0.00 27 1009.3
20260505234050 73 293 7.8 13.9 0.00 0.17 0.00 27 1009.3
20260505233048 73 292 7.8 15.6 0.00 0.17 0.00 28 1009.3
20260505232033 73 280 7.8 19.1 0.00 0.17 0.00 29 1009.3
20260505231033 73 278 8.7 24.3 0.00 0.17 0.00 29 1009.6
20260505230031 73 303 6.1 13.0 0.00 0.17 0.00 29 1009.8
20260505225033 73 279 7.0 15.6 0.00 0.17 0.00 30 1009.8
20260505224033 73 283 9.6 15.6 0.00 0.17 0.00 30 1009.8
20260505223033 72 280 5.2 8.7 0.00 0.17 0.00 31 1009.9
20260505222033 72 293 6.1 13.0 0.00 0.17 0.00 31 1009.9
20260505221033 72 290 6.1 11.3 0.00 0.17 0.00 32 1010.0
20260505220033 72 300 6.1 13.0 0.00 0.17 0.00 32 1010.2
20260505215031 72 283 4.3 8.7 0.00 0.17 0.00 33 1010.2
20260505214033 72 271 4.3 11.3 0.00 0.17 0.00 35 1010.3
20260505213050 71 279 7.8 16.5 0.00 0.17 0.00 38 1010.3
20260505212033 71 294 9.6 19.1 0.00 0.17 0.00 41 1010.3
20260505211107 70 293 9.6 16.5 0.00 0.17 0.00 43 1010.6
20260505210033 69 285 6.1 13.9 0.00 0.17 0.00 46 1011.0
20260505205031 69 298 6.1 13.9 0.00 0.17 0.00 46 1011.0
20260505204031 70 310 6.1 13.9 0.00 0.17 0.00 45 1010.8
20260505203033 71 305 4.3 10.4 0.00 0.17 0.00 43 1010.8
20260505202108 71 288 8.7 13.0 0.00 0.17 0.00 44 1010.8
20260505201033 70 288 3.5 8.7 0.00 0.17 0.00 47 1010.9
20260505200033 70 290 6.1 13.9 0.00 0.17 0.00 49 1011.1
20260505195033 69 284 7.0 13.0 0.00 0.17 0.00 52 1011.1
20260505194031 69 294 3.5 7.8 0.00 0.17 0.00 54 1011.4
20260505193031 68 297 4.3 11.3 0.00 0.17 0.00 55 1011.5
20260505192033 68 305 1.7 6.1 0.00 0.17 0.00 55 1011.5
20260505191033 68 290 2.6 7.8 0.00 0.17 0.00 55 1011.6
20260505190033 67 47 1.7 7.8 0.00 0.17 0.00 57 1012.0
20260505185107 66 16 0.0 2.6 0.00 0.17 0.00 59 1012.0
20260505184032 65 284 0.0 5.2 0.00 0.17 0.00 60 1012.5
20260505183031 65 52 0.9 6.1 0.00 0.17 0.00 61 1012.4
20260505182033 65 18 0.9 3.5 0.00 0.17 0.00 62 1012.4
20260505181033 64 48 0.0 2.6 0.00 0.17 0.00 63 1012.9
20260505180033 64 324 0.9 5.2 0.00 0.17 0.00 63 1013.0
20260505175050 63 73 0.0 5.2 0.00 0.17 0.00 64 1013.0
20260505174033 63 273 0.9 5.2 0.00 0.17 0.00 64 1013.0
20260505173033 63 277 0.0 3.5 0.00 0.17 0.00 64 1013.0
20260505172031 63 60 0.0 5.2 0.00 0.17 0.00 65 1013.0
20260505171033 63 67 0.0 2.6 0.00 0.17 0.00 65 1013.1
20260505170033 62 0 0.0 0.0 0.00 0.17 0.00 66 1013.0
20260505165033 62 292 1.7 6.1 0.00 0.17 0.00 67 1013.0
20260505164033 62 287 2.6 6.1 0.00 0.17 0.00 68 1012.8
20260505163033 61 299 2.6 7.8 0.00 0.17 0.00 69 1013.0
20260505162050 61 283 4.3 8.7 0.00 0.17 0.00 72 1013.0
20260505161031 61 282 1.7 6.1 0.00 0.17 0.00 75 1013.0
20260505153033 59 271 2.6 6.1 0.00 0.17 0.00 83 1012.7
20260505152033 59 275 0.9 2.6 0.00 0.17 0.00 85 1012.7
20260505151031 59 286 0.9 2.6 0.00 0.17 0.00 85 1012.6
20260505125031 56 0 0.0 0.0 0.00 0.17 0.00 88 1011.6
20260505124032 56 0 0.0 0.0 0.00 0.17 0.00 89 1011.4
20260505123033 56 56 0.0 0.9 0.00 0.17 0.00 89 1010.9
20260505122033 57 54 0.0 0.9 0.00 0.17 0.00 90 1010.9
20260505121033 57 54 0.0 2.6 0.00 0.17 0.00 90 1010.9
20260505120050 57 44 0.0 3.5 0.00 0.17 0.00 90 1010.3
20260505115033 57 353 0.0 0.9 0.00 0.17 0.00 90 1010.3
20260505114033 57 7 0.0 5.2 0.00 0.17 0.00 89 1010.8
20260505113031 57 69 0.9 3.5 0.00 0.17 0.00 90 1010.6
20260505112033 56 23 0.0 0.9 0.00 0.17 0.00 89 1010.6
20260505111033 57 22 0.0 0.9 0.00 0.16 0.00 89 1010.8
20260505102050 57 35 3.5 8.7 0.14 0.14 0.00 87 1011.1
20260505101033 57 34 6.1 13.9 0.00 0.11 0.00 87 1010.8
20260505100107 58 36 6.1 11.3 0.00 0.11 0.00 86 1010.7
20260505095033 58 22 4.3 7.8 0.00 0.11 0.00 84 1010.7
20260505094033 58 354 3.5 8.7 0.00 0.11 0.00 83 1011.0
20260505093033 58 16 2.6 6.1 0.00 0.11 0.00 82 1011.1
20260505092031 58 37 3.5 7.8 0.00 0.10 0.00 83 1011.1
20260505091033 58 42 2.6 8.7 0.00 0.10 0.00 84 1011.0
20260505090033 58 5 0.9 6.1 0.04 0.10 0.00 85 1011.7
20260505085033 57 18 1.7 5.2 0.04 0.10 0.00 86 1011.7
20260505084050 57 3 3.5 7.8 0.05 0.09 0.00 87 1012.3
20260505083033 58 356 1.7 5.2 0.13 0.09 0.00 87 1012.6
20260505082033 58 2 3.5 8.7 0.06 0.07 0.00 86 1012.6
20260505081031 58 13 3.5 7.8 0.04 0.06 0.00 86 1013.1
20260505080050 58 15 2.6 6.1 0.04 0.05 0.00 86 1013.1
20260505075033 58 6 3.5 7.8 0.11 0.05 0.00 87 1013.1
20260505074033 58 14 2.6 7.8 0.09 0.03 0.00 87 1013.5
20260505073033 58 54 0.0 0.9 0.06 0.02 0.00 88 1013.5
20260505072050 58 0 0.0 0.0 0.00 0.01 0.00 87 1013.5
20260505071033 58 0 0.0 0.0 0.06 0.20 0.00 87 1013.4
20260505070031 58 80 0.0 0.9 0.06 0.19 0.00 87 1013.4
20260505065033 58 0 0.0 0.0 0.06 0.19 0.00 86 1013.4
20260505064033 59 0 0.0 0.0 0.06 0.17 0.00 86 1013.5
20260505063033 59 0 0.0 0.0 0.06 0.17 0.00 85 1013.7
20260505062033 59 80 0.0 0.9 0.00 0.15 0.00 84 1013.7
20260505061033 59 80 0.0 2.6 0.04 0.15 0.00 83 1013.8
20260505060048 59 53 0.9 2.6 0.04 0.15 0.00 83 1013.5
20260505055031 59 6 0.0 3.5 0.00 0.14 0.00 83 1013.5
20260505054050 58 33 0.9 3.5 0.00 0.14 0.00 83 1013.6
20260505053033 58 45 1.7 6.1 0.00 0.13 0.00 83 1013.4
20260505052033 58 41 1.7 5.2 0.00 0.13 0.00 84 1013.4
20260505051033 57 35 0.0 2.6 0.00 0.13 0.00 84 1013.5
20260505041033 60 88 1.7 7.8 0.08 0.09 0.00 71 1013.7
20260505040033 61 272 1.7 5.2 0.00 0.08 0.00 67 1013.4
20260505035033 62 284 3.5 6.1 0.00 0.07 0.00 65 1013.4
20260505034050 62 298 2.6 6.1 0.00 0.07 0.00 64 1012.4
20260505033048 61 83 2.6 6.1 0.00 0.07 0.00 63 1012.2
20260505032033 61 356 1.7 11.3 0.00 0.07 0.00 63 1012.2
20260505031033 60 352 2.6 6.1 0.00 0.07 0.00 62 1012.8
20260505030050 60 56 1.7 5.2 0.00 0.07 0.00 62 1012.8
20260505025033 59 1 2.6 6.1 0.00 0.06 0.00 64 1012.8